Location: Courcelles
(49.2596°N, 1.7419°E)
Time: 22:01:32
(UTC+00:00)

USA 281 - Pass Details

Date: 17 November 2025
Orbit: 1079 x 1080 km, 106.0° (Epoch: 27 November)

Event Time Altitude Azimuth Distance (km) Brightness Sun altitude
Exits shadow 17:15:08 13° 78° (ENE) 2,683 4.6 -10.8°
Maximum altitude 17:18:54 22° 38° (NE) 2,193 4.4 -11.4°
Drops below altitude 10° 17:23:37 10° 352° (N) 2,932 5.4 -12.1°
Sets 17:26:44 0° 338° (NNW) 3,891 6.2 -12.6°
